GFSGBSN_925_temp_000.txt.gz
Temp
11 11 12 12 12 13 12 13 14 14 14 14 14 15 16 16 17 18 19 19 19 20 21 22 23 23 23 21 24 26 27 27 27 27 26 24 23 24 23 25 25 25 25 25 25 25 25
12 12 12 12 12 12 14 15 16 16 15 16 16 16 17 18 18 19 19 19 20 21 22 22 23 23 22 22 26 26 26 27 27 27 27 26 24 24 25 25 24 25 25 25 24 24 24
12 12 12 12 12 14 15 15 16 16 16 16 17 17 18 18 19 19 19 20 21 21 22 23 23 22 20 23 26 26 27 27 27 27 25 27 26 24 24 25 26 26 25 23 23 24 24
12 13 13 13 14 15 15 16 16 17 17 17 18 18 19 19 20 20 20 21 21 22 23 23 23 22 21 26 26 27 26 27 27 27 27 27 27 25 25 25 23 24 22 22 23 23 25
13 13 13 14 14 15 15 16 17 17 18 18 19 19 20 20 20 21 21 22 23 23 23 22 21 21 23 26 26 27 26 26 27 27 27 27 27 24 23 20 19 19 21 22 23 24 24
13 13 14 14 15 15 16 17 17 18 18 19 19 20 21 21 21 22 23 23 23 23 22 21 20 21 24 25 26 26 26 26 25 24 24 25 20 20 18 18 19 21 21 20 23 22 21
13 13 14 14 15 15 16 17 17 18 19 19 20 21 21 22 22 23 23 23 19 19 21 23 23 23 24 26 26 26 26 26 24 24 23 23 20 20 22 23 23 23 21 21 22 22 21
13 14 14 14 15 16 16 17 18 18 19 20 20 21 22 22 22 23 23 19 20 20 20 24 24 24 25 25 24 23 25 23 23 22 22 20 21 23 23 22 22 21 21 20 20 21 21
14 14 14 15 15 16 16 17 18 18 19 20 21 21 22 22 23 22 21 20 21 21 19 23 24 24 24 25 24 23 24 23 23 22 21 21 23 24 22 21 21 21 21 20 20 19 20
14 14 15 15 15 16 16 17 18 19 19 19 20 21 22 23 23 21 20 21 21 20 16 22 23 24 25 25 24 25 25 24 22 23 23 23 23 23 21 22 21 20 21 21 19 19 19
14 15 15 15 15 16 17 17 18 19 19 19 20 21 22 22 21 21 20 21 21 20 15 23 24 25 25 24 24 25 25 24 23 22 21 22 23 21 21 21 21 20 20 19 20 18 19
15 15 15 15 15 16 17 17 17 19 19 19 19 20 21 21 21 20 20 21 21 15 18 23 24 24 24 23 24 23 21 21 22 21 21 22 23 21 22 21 22 20 20 18 18 17 16
15 15 15 15 15 16 16 17 17 18 20 20 19 20 21 20 20 20 21 19 16 15 23 22 23 24 22 22 23 21 19 18 18 18 17 19 21 21 22 20 19 18 16 13 14 13 15
14 15 15 15 15 16 16 17 17 18 20 21 20 20 20 20 20 21 20 15 18 20 22 24 23 23 22 22 23 20 20 18 18 18 16 17 17 19 21 21 20 19 17 12 15 13 14
14 14 15 15 15 16 16 17 18 18 20 20 20 20 20 19 20 20 15 13 14 19 21 21 22 21 21 22 22 20 18 18 18 17 17 15 17 19 20 20 20 19 16 18 15 8 11
14 14 14 15 15 16 16 17 18 19 20 21 20 19 20 20 20 20 12 16 20 21 21 21 21 20 20 19 20 20 19 18 19 18 17 18 16 18 18 19 20 20 19 15 12 12 14
13 14 14 15 15 16 16 16 18 19 20 20 20 16 20 20 20 14 12 15 20 22 21 20 19 19 19 19 19 19 18 18 19 18 17 17 17 16 17 18 18 16 15 16 17 13 13
13 14 14 15 15 15 16 16 17 18 20 20 17 15 21 20 16 12 16 20 19 21 20 20 19 19 19 19 18 18 18 18 19 19 17 17 13 12 16 17 18 18 17 15 11 14 11
13 13 14 14 15 15 15 16 17 17 18 18 14 15 20 20 11 9 19 19 18 20 19 19 19 19 19 18 17 18 19 19 19 18 18 17 12 11 15 16 15 16 17 16 14 10 12
12 13 14 14 14 15 15 16 17 17 18 18 13 12 12 12 13 17 18 19 19 19 19 20 20 19 18 17 17 18 17 18 18 18 16 15 14 13 12 14 14 14 16 16 14 8 13
12 12 13 13 14 15 15 16 17 18 19 19 12 13 14 11 13 16 17 19 18 18 20 19 18 17 18 15 15 16 16 15 16 15 17 14 13 14 13 14 15 15 15 15 14 13 11
11 11 12 13 13 14 14 15 17 18 19 19 13 13 12 13 16 17 13 18 19 19 19 18 17 16 16 16 16 16 16 15 15 16 15 13 11 12 13 14 13 13 14 13 13 13 13
11 11 12 12 13 13 14 14 16 17 18 17 16 16 12 10 12 11 12 18 18 18 18 18 18 16 13 16 16 16 15 15 14 14 12 13 8 8 13 10 10 12 12 13 14 14 13
11 11 11 12 12 13 13 14 15 16 17 16 16 14 9 9 7 12 17 18 17 18 17 18 17 13 15 16 14 12 11 11 11 11 12 8 7 7 9 10 12 14 14 14 14 13 14
11 11 11 11 12 12 13 14 14 15 16 16 16 15 7 7 7 12 17 17 16 16 17 18 17 15 13 10 9 8 8 9 10 13 12 11 8 9 9 11 12 13 14 15 14 13 12
11 11 11 11 11 11 12 13 14 15 15 15 15 15 11 7 9 15 15 16 10 12 11 16 15 14 9 6 6 6 7 9 12 13 11 8 6 7 9 10 12 12 14 15 15 11 12
10 11 11 11 11 11 11 12 13 14 14 15 14 15 14 7 11 15 12 12 13 10 11 9 14 10 9 7 8 9 8 11 10 8 8 6 7 7 4 7 8 11 13 14 10 12 12
10 10 11 11 11 11 11 11 12 12 13 14 13 14 15 8 10 15 16 15 13 10 8 11 11 8 6 8 8 7 10 8 9 11 10 10 8 9 7 9 10 13 13 11 11 10 11
10 10 10 11 11 11 11 12 12 12 12 13 13 13 14 13 11 13 14 14 15 15 11 10 11 10 7 7 7 4 8 8 6 11 12 11 10 9 9 9 11 12 13 11 11 12 10

GFSGBSN_925_temp_003.txt.gz
Temp
12 12 12 11 11 12 12 14 14 14 14 15 15 15 16 16 17 17 18 19 19 20 20 22 22 23 23 22 23 26 26 26 27 27 25 23 22 23 23 24 24 24 24 24 25 25 24
12 12 12 12 12 12 12 15 15 15 15 15 15 16 17 17 18 18 19 19 20 20 21 22 23 23 23 22 26 26 26 27 27 26 26 25 24 24 24 24 24 24 24 23 24 24 23
12 12 12 13 13 14 15 16 15 15 16 16 16 17 18 18 18 19 19 20 20 21 22 22 23 23 21 23 26 26 26 26 26 26 24 26 25 24 24 25 24 24 23 22 23 23 23
12 12 13 14 14 14 16 16 16 17 17 17 18 18 19 19 19 19 20 20 21 22 23 23 23 23 21 26 26 26 26 26 27 27 26 26 26 24 24 24 21 21 20 20 22 22 23
12 13 13 14 14 15 16 16 17 18 18 18 19 19 19 19 20 20 21 21 22 22 23 23 23 21 23 26 26 26 26 25 26 26 27 26 25 21 20 19 19 17 20 21 22 22 23
13 13 14 14 14 15 16 17 17 18 18 19 19 19 20 20 21 21 22 23 23 23 23 23 21 21 23 23 25 26 26 25 25 23 23 22 18 19 17 17 18 20 20 20 21 21 19
13 13 14 14 14 15 16 17 17 18 19 19 19 20 21 21 22 22 23 21 18 19 21 21 22 22 23 25 25 26 25 24 23 21 21 20 19 20 21 21 22 22 21 20 21 21 20
13 14 14 14 15 15 16 17 18 18 19 20 20 21 21 22 22 23 23 18 19 19 20 21 23 23 24 24 23 23 25 23 22 21 21 19 21 22 22 21 22 21 21 19 19 20 19
14 14 14 14 15 15 16 17 18 18 19 20 21 21 22 22 22 23 21 19 20 20 18 21 23 24 24 24 23 23 23 22 22 22 21 20 23 22 22 19 20 20 21 20 19 18 19
14 14 14 14 15 15 16 17 18 18 19 20 21 22 22 23 22 21 20 20 20 19 15 20 22 24 24 24 23 24 24 23 21 22 22 22 22 21 20 21 20 19 21 20 18 18 18
14 14 15 15 15 15 16 16 17 18 18 19 20 21 22 22 21 20 20 20 20 19 14 21 23 25 24 23 24 22 22 23 22 21 20 22 22 20 20 21 20 19 18 18 19 18 18
14 14 15 15 15 15 16 16 17 19 19 19 20 21 21 21 21 20 20 21 20 14 17 22 23 23 23 22 21 22 19 19 20 19 19 19 21 21 21 20 20 19 18 17 16 16 15
14 14 15 15 15 15 16 17 17 19 20 19 20 20 21 20 19 20 21 19 15 14 22 22 22 22 22 21 20 20 18 17 16 18 16 18 19 19 20 19 18 17 15 13 14 13 14
14 14 14 14 15 15 16 17 18 19 20 20 20 20 20 20 20 20 20 15 18 19 20 22 21 22 21 20 19 18 18 16 17 16 14 16 16 18 19 20 19 18 16 12 15 12 13
14 14 14 14 14 15 16 17 18 20 20 20 20 20 20 19 20 20 14 12 14 16 20 20 21 20 19 20 20 19 17 17 17 16 17 14 17 18 19 18 19 18 15 17 12 6 10
13 13 14 14 15 15 16 17 18 19 20 21 20 19 19 19 20 19 11 15 19 20 20 20 20 19 19 18 19 18 17 18 18 16 17 17 15 17 17 19 18 18 18 15 11 11 13
12 13 13 14 14 15 16 17 18 19 20 21 20 15 19 19 20 12 12 13 20 20 20 19 19 19 18 19 18 17 17 18 18 18 16 16 16 15 16 17 17 15 14 15 15 12 12
12 13 13 14 15 15 15 17 18 19 20 20 16 15 19 20 15 10 15 19 18 18 18 18 18 18 18 18 17 18 18 18 18 18 17 16 12 12 16 15 16 17 15 14 12 13 10
12 13 13 14 14 15 15 16 17 19 19 19 13 14 19 20 12 8 17 18 18 19 18 19 19 18 17 17 17 18 18 17 17 18 17 16 12 11 14 15 15 16 15 14 11 9 11
12 13 13 14 14 15 15 16 17 18 19 19 12 11 12 11 11 16 17 18 18 19 18 18 18 17 17 16 15 17 16 16 15 17 14 15 13 13 12 14 14 13 14 14 13 7 11
11 12 12 13 14 14 15 16 17 18 19 19 11 12 13 11 12 15 16 18 18 18 19 16 16 16 17 14 15 15 15 15 16 14 15 13 13 13 13 13 13 14 13 14 13 12 12
11 11 12 13 13 14 15 16 17 18 18 18 13 12 11 12 15 16 12 18 17 18 18 17 15 16 16 15 15 16 15 15 15 15 14 12 10 12 12 12 12 12 13 12 12 12 11
11 11 12 12 12 13 14 15 16 18 18 16 14 14 12 8 11 11 11 17 18 17 16 17 15 14 14 16 15 15 14 14 14 14 12 12 8 8 10 9 9 10 11 12 13 13 13
10 11 11 12 12 13 13 15 16 17 18 17 15 14 9 9 6 11 16 17 17 17 16 17 16 13 16 14 13 12 11 10 11 10 11 7 7 7 7 10 10 14 14 14 12 13 12
10 11 11 11 12 12 13 14 15 16 16 17 16 14 7 7 7 12 15 15 16 15 16 17 16 14 12 10 8 8 8 9 9 10 10 8 8 9 11 10 11 13 14 14 13 12 13
10 10 11 11 11 12 12 13 14 15 15 16 16 16 11 7 9 15 14 15 9 10 10 15 13 12 8 4 6 7 8 9 11 12 9 7 5 7 8 10 11 12 13 14 13 10 12
10 10 11 11 11 11 12 12 13 14 14 15 14 15 15 7 11 13 11 11 11 9 10 8 14 9 9 7 7 5 8 10 9 7 8 6 7 8 8 9 8 10 12 13 10 12 11
10 10 10 11 11 11 12 12 12 13 13 14 13 14 15 7 10 14 15 13 11 9 8 10 10 7 7 8 6 7 4 7 8 10 9 10 9 7 7 8 9 12 13 11 11 11 10
10 10 10 11 11 11 11 11 12 12 13 13 13 13 14 13 12 13 14 15 15 14 10 8 11 9 7 7 6 4 7 7 6 11 10 10 10 9 10 10 11 11 12 12 11 10 9

GFSGBSN_925_temp_006.txt.gz
Temp
11 12 12 12 13 13 12 14 14 14 14 14 14 14 14 14 15 16 18 19 19 20 21 21 22 22 22 21 23 25 26 26 26 26 25 23 22 22 22 23 23 23 23 22 23 21 22
12 12 12 13 13 13 14 15 15 15 14 14 14 15 16 16 17 18 18 19 20 21 21 22 22 22 22 21 25 25 26 26 26 26 24 24 23 23 22 23 23 23 23 23 23 23 23
12 12 13 13 13 14 15 15 15 15 16 15 16 17 17 17 18 18 19 20 20 21 21 22 22 23 22 23 25 26 26 26 26 26 24 24 24 23 22 24 21 22 23 20 21 21 23
13 13 13 13 13 13 15 16 16 16 16 17 17 17 18 18 19 19 20 20 21 21 22 23 23 22 22 25 25 26 26 26 27 26 26 25 25 22 21 22 19 20 19 19 22 21 22
13 13 13 13 14 14 15 16 16 16 17 17 18 18 19 19 20 20 20 21 21 22 23 23 23 23 23 26 25 26 25 25 26 26 25 25 23 19 18 19 18 16 19 20 20 19 19
13 13 13 14 14 15 16 16 17 17 18 18 19 19 20 20 20 20 21 21 22 23 22 22 22 21 23 23 24 25 25 25 24 23 22 20 17 18 16 17 18 20 20 19 19 20 18
13 13 13 14 14 15 16 17 17 18 19 19 19 19 20 21 21 21 22 21 18 19 21 21 21 21 22 24 24 24 24 24 22 19 20 18 18 19 20 20 21 21 20 19 19 20 19
13 13 13 14 14 15 15 17 17 18 19 19 20 20 21 21 22 21 21 17 18 19 21 21 21 22 23 23 22 21 24 22 21 20 21 19 20 21 19 19 20 21 20 19 18 18 19
14 13 13 14 14 15 15 17 18 18 19 20 20 21 21 21 21 20 20 18 19 19 18 21 22 23 23 24 22 21 22 21 21 20 19 19 21 20 20 18 18 19 20 20 19 17 18
14 14 14 13 14 14 15 16 18 18 19 20 20 21 21 22 22 20 19 19 19 20 15 19 22 24 23 23 22 22 21 22 20 21 21 20 20 20 19 20 19 19 20 19 17 17 18
14 14 14 14 14 14 15 16 17 18 18 19 20 21 22 22 21 19 19 20 20 20 14 21 22 24 22 21 22 20 20 21 19 19 19 20 20 19 19 20 19 18 17 17 18 17 17
14 14 14 14 14 14 15 16 17 18 18 19 20 21 21 21 21 19 20 20 20 13 17 21 22 22 22 19 20 19 18 18 19 18 17 18 19 19 20 20 19 18 17 16 15 15 15
14 14 14 14 14 14 15 16 17 19 19 19 20 20 21 21 18 20 20 18 15 14 20 21 21 21 20 19 19 18 17 15 16 19 15 17 18 18 19 18 18 16 14 13 14 12 14
14 14 14 14 14 14 15 16 17 19 19 19 19 20 19 19 19 20 20 14 17 18 19 20 20 19 19 19 18 17 17 15 16 16 13 15 16 18 18 19 18 17 15 11 15 11 12
13 13 14 14 14 14 15 16 17 19 20 20 20 20 19 18 19 20 14 12 14 16 19 20 20 19 19 19 18 17 16 16 16 16 16 13 16 17 18 17 18 18 14 15 11 6 9
12 13 13 14 14 14 15 16 17 18 20 20 20 19 18 18 19 19 11 14 18 17 19 19 19 19 19 17 18 17 17 17 17 16 16 16 16 17 17 18 17 16 16 14 11 11 12
13 13 13 14 14 14 15 16 17 18 20 20 20 14 18 18 19 12 11 13 19 18 19 19 18 18 18 18 17 17 17 18 18 17 15 16 15 15 16 16 16 15 13 14 13 11 10
12 13 13 13 14 14 15 15 17 18 20 20 16 15 18 18 14 9 14 18 17 17 17 18 17 18 18 17 17 17 17 17 16 17 16 15 11 12 16 16 15 15 15 13 10 12 9
12 13 13 13 14 14 14 15 16 18 19 19 13 14 18 18 12 8 16 17 17 18 17 18 18 17 16 16 16 17 17 16 15 16 16 15 11 11 14 14 14 15 15 13 10 9 11
11 12 13 13 13 14 14 15 16 18 18 19 12 12 11 10 10 15 16 17 17 17 16 15 16 16 16 15 14 16 16 16 14 15 12 13 12 13 11 14 13 13 14 13 12 11 11
11 11 12 13 13 14 14 15 16 18 18 18 10 12 12 11 11 14 15 17 17 18 17 15 16 16 16 14 14 14 15 14 15 13 13 13 13 12 12 12 12 13 12 12 11 11 12
11 11 12 12 13 13 14 15 16 17 18 17 12 12 10 10 13 15 11 17 17 17 17 17 15 16 16 15 16 16 15 14 14 15 14 10 10 11 10 11 10 10 11 11 11 11 11
11 11 11 12 12 13 13 14 16 17 18 15 12 13 11 7 10 11 11 16 17 16 15 16 14 14 14 15 14 15 13 14 14 14 12 11 7 8 9 9 8 10 12 11 12 12 12
10 11 11 11 12 12 13 14 15 16 17 17 14 13 9 9 5 10 15 16 16 16 15 15 14 12 15 13 13 11 10 9 11 11 11 7 6 6 7 10 11 13 14 14 12 12 12
10 10 11 11 11 12 12 13 14 15 16 17 15 14 8 6 6 11 15 14 15 14 15 15 14 12 11 10 8 8 8 8 8 8 9 8 7 8 11 11 11 13 14 15 12 11 13
10 10 10 11 11 11 12 13 14 15 15 16 14 15 11 7 9 14 13 14 9 10 10 13 11 10 8 4 6 7 8 9 11 11 7 7 4 6 8 10 11 12 13 13 12 10 12
10 10 10 10 10 11 11 12 13 14 15 15 14 15 14 7 10 12 10 11 10 8 9 8 12 9 8 5 7 5 8 9 9 7 7 6 7 10 10 9 9 10 11 12 11 11 12
10 10 10 10 10 11 11 11 12 13 14 15 13 14 15 6 9 13 13 11 10 9 8 9 9 6 7 8 6 7 3 7 8 9 9 9 7 5 7 8 8 10 12 12 11 11 11
10 10 10 10 10 10 11 11 11 12 13 14 13 14 14 13 11 12 14 14 14 14 9 7 10 9 6 6 6 4 5 5 7 10 9 9 9 10 10 9 10 12 12 12 11 10 9

GFSGBSN_925_temp_009.txt.gz
Temp
11 11 12 12 12 13 12 14 14 14 14 14 14 14 14 15 15 16 17 18 19 20 21 21 21 22 22 21 23 25 25 26 26 26 25 23 23 22 23 23 23 24 23 22 23 21 22
11 12 12 13 13 13 14 14 15 14 14 14 14 15 15 16 16 17 18 19 20 21 21 21 22 22 22 22 25 25 26 26 26 26 24 24 23 22 23 23 23 23 23 22 22 22 22
11 12 13 13 13 13 15 15 15 15 15 15 15 16 16 17 17 18 19 19 20 21 21 21 21 22 21 23 25 25 26 26 26 26 24 24 23 24 22 23 21 21 23 22 21 21 23
12 12 13 13 12 14 15 15 16 16 16 16 17 17 17 17 18 18 19 20 21 21 21 22 22 22 23 25 25 26 25 25 25 25 24 24 24 21 22 21 21 22 21 23 22 22 22
12 12 13 13 13 14 15 16 16 16 17 17 17 18 18 18 19 19 20 21 21 21 22 22 22 22 23 25 25 24 24 24 25 24 24 24 22 20 21 22 22 20 23 21 22 20 21
12 13 13 13 14 14 15 16 17 17 18 18 18 18 19 19 20 20 21 21 21 21 22 22 21 22 23 23 24 24 24 24 22 23 23 22 20 21 20 23 22 21 21 21 21 22 21
12 13 13 14 14 14 15 16 17 17 18 18 19 19 19 19 20 20 20 20 19 20 21 21 21 21 22 23 24 23 23 23 22 21 22 19 22 21 20 20 20 21 20 20 20 19 20
13 13 13 14 14 14 14 16 17 17 18 19 19 20 20 20 20 20 20 17 18 20 20 20 21 21 23 22 21 22 23 22 21 21 20 21 20 20 19 19 20 20 20 20 20 19 20
13 13 14 14 14 14 15 16 17 18 19 20 20 20 20 20 21 20 20 18 19 19 19 21 21 22 22 23 20 20 21 20 20 20 19 20 21 19 20 19 20 19 20 19 20 19 19
13 14 14 14 14 15 15 15 17 18 19 20 20 20 21 21 21 19 19 19 19 19 17 19 21 23 22 22 21 20 20 21 20 20 20 20 19 19 19 19 19 19 19 18 18 19 21
13 14 14 14 14 15 15 15 17 18 19 20 20 21 21 21 21 18 19 19 19 19 17 21 21 23 20 21 20 21 19 20 19 18 20 20 19 19 20 19 19 20 17 17 18 19 19
13 14 14 14 14 14 14 15 17 18 18 19 20 20 21 21 21 19 20 19 19 15 17 20 21 21 21 19 19 19 18 18 18 18 18 18 18 19 19 19 18 18 18 17 16 18 19
14 14 14 14 14 14 15 15 17 18 18 19 20 20 21 21 18 19 19 18 17 16 19 20 20 20 18 18 18 18 17 16 17 19 16 18 19 18 18 19 19 18 18 19 19 18 19
14 14 14 14 14 14 15 15 16 18 18 19 19 20 19 19 19 19 19 16 17 17 19 19 20 18 19 18 18 17 17 17 16 16 16 17 19 18 18 18 18 17 17 17 18 17 17
13 14 14 14 14 14 15 15 16 18 19 19 19 19 19 18 19 19 15 14 15 16 19 19 19 19 18 18 18 17 16 16 16 16 17 16 18 17 17 17 18 18 17 16 14 8 14
13 13 14 14 14 14 15 16 16 18 19 19 20 18 17 18 18 19 12 15 18 17 19 19 19 18 18 17 18 17 17 17 17 15 16 16 17 17 17 17 17 18 17 17 15 16 16
13 13 14 14 14 14 15 15 16 17 19 19 19 15 17 18 19 13 13 14 17 17 18 19 18 17 17 17 17 16 17 17 17 17 16 15 16 17 16 17 17 17 17 15 15 14 15
12 13 13 13 14 14 15 15 16 17 19 19 15 16 17 17 15 10 14 17 17 17 17 17 17 17 17 16 16 17 16 16 15 16 16 15 13 15 17 15 15 16 16 15 15 15 13
12 13 13 13 14 14 14 15 16 17 18 19 14 14 17 17 13 10 15 16 16 18 16 17 17 16 15 15 16 16 16 15 14 16 16 15 14 15 16 16 16 16 15 13 12 12 14
11 12 13 13 14 14 14 15 16 17 18 18 12 13 12 10 11 14 15 16 17 16 15 15 16 16 15 15 14 15 15 15 14 14 12 14 13 14 16 16 15 14 14 13 14 13 14
11 12 12 13 13 13 14 15 16 17 18 18 10 12 12 12 13 14 15 16 16 17 16 15 16 16 16 14 14 14 15 15 14 13 13 14 14 13 13 14 13 14 14 14 13 14 13
11 12 12 12 13 13 14 15 16 17 18 17 13 12 10 10 13 15 12 16 16 16 17 16 15 15 15 15 15 15 15 14 15 14 13 11 13 11 11 11 11 11 13 12 13 13 13
11 11 12 12 13 13 13 14 16 17 18 15 11 12 12 7 10 12 12 15 16 15 15 15 14 14 14 15 15 15 13 12 14 14 13 12 11 10 12 10 10 12 13 12 13 13 14
10 10 11 11 12 12 13 14 15 16 17 17 14 13 10 10 8 11 14 15 14 16 15 14 14 12 14 12 12 11 10 10 11 11 11 8 9 9 11 11 13 16 14 14 14 14 14
10 10 10 11 11 12 12 13 14 15 16 17 15 13 9 7 7 11 14 13 13 13 13 14 12 11 11 11 10 10 10 10 8 8 9 9 8 9 10 12 12 14 15 14 13 14 13
10 10 10 10 11 11 12 13 13 15 15 16 14 15 10 7 10 13 13 13 11 10 11 11 10 9 9 7 9 10 12 10 13 11 8 8 7 10 9 11 12 13 13 12 12 13 12
10 10 10 10 10 11 11 12 13 14 15 16 14 15 14 8 10 12 12 12 10 10 10 9 11 10 9 7 8 10 12 9 12 9 8 7 8 10 11 10 11 12 11 12 12 11 11
9 10 10 10 10 10 11 11 12 13 14 15 13 15 15 7 10 12 12 11 10 10 10 10 10 8 7 8 8 8 8 9 10 10 10 11 11 9 8 9 10 11 12 12 12 10 10
9 10 10 10 10 10 11 11 12 12 13 14 14 14 15 12 11 12 13 13 14 13 10 7 11 9 8 7 6 6 7 5 8 11 9 11 11 11 10 11 11 12 13 11 10 9 7

GFSGBSN_925_temp_012.txt.gz
Temp
10 10 11 11 11 11 12 12 14 14 14 13 13 13 14 13 15 16 17 18 18 19 19 20 21 21 21 26 26 25 26 26 26 25 28 29 29 29 29 28 29 28 28 27 27 27 27
10 11 12 12 11 11 13 14 15 14 14 14 14 14 15 16 16 17 18 19 19 19 20 21 21 21 23 25 25 25 26 26 27 28 28 29 29 29 28 27 28 27 28 27 27 27 26
10 12 12 12 12 12 15 15 15 15 15 15 15 15 16 16 17 18 18 19 19 20 20 21 21 21 26 26 25 25 26 26 26 26 28 26 27 29 29 27 26 27 27 27 26 26 26
11 12 12 12 13 14 15 15 15 15 15 15 16 16 17 17 18 18 19 20 20 21 21 21 21 22 26 24 25 25 25 26 25 25 26 25 26 27 27 26 27 28 28 28 26 27 26
11 12 13 13 13 14 15 16 16 16 16 17 17 17 17 18 18 19 19 20 21 21 21 22 22 24 26 25 26 24 24 27 26 25 24 24 26 27 27 28 28 28 27 27 26 26 26
12 12 13 13 14 14 16 16 16 17 17 17 18 18 18 18 19 19 20 20 21 21 21 22 22 26 26 26 25 24 24 24 27 27 28 28 28 28 29 29 27 26 26 27 26 26 26
12 13 13 13 14 15 16 16 17 17 18 18 18 18 19 19 19 20 20 20 23 24 25 24 24 25 25 25 24 25 23 26 27 28 28 26 28 26 25 25 25 25 25 26 26 24 24
12 13 13 13 14 14 16 16 17 18 18 19 19 19 19 19 20 20 20 24 21 23 24 23 24 25 24 24 26 26 25 27 27 27 26 27 25 24 24 24 25 25 25 25 25 23 24
12 13 13 13 14 14 15 17 17 18 19 19 19 19 19 20 20 19 20 20 19 21 25 24 24 25 25 25 24 24 26 26 26 26 26 26 24 23 24 25 25 24 24 23 23 24 24
13 13 13 13 14 14 15 16 17 18 19 19 19 20 20 20 20 19 21 19 20 21 25 24 25 25 25 25 24 23 22 25 25 24 25 24 23 23 24 23 23 24 23 22 22 23 26
13 13 13 13 14 14 16 16 18 18 19 19 20 21 21 20 20 23 19 19 19 21 23 23 25 24 25 25 24 24 22 25 24 23 24 22 23 23 23 22 22 23 21 22 22 24 24
13 13 14 13 14 14 15 16 18 18 19 19 20 20 20 20 20 18 20 19 20 23 21 23 24 24 24 24 23 24 24 24 23 24 24 23 23 23 23 22 22 22 22 22 22 23 23
13 14 14 14 14 15 15 16 18 18 18 19 20 20 20 21 21 19 20 21 23 22 22 23 23 24 23 22 22 23 22 21 23 23 23 23 23 23 22 23 23 24 23 23 22 22 23
13 13 14 14 14 15 15 15 17 18 18 19 19 20 20 19 19 20 20 23 22 21 22 22 23 23 23 22 22 22 22 22 22 22 23 22 22 22 21 21 21 22 22 21 20 21 22
12 13 14 14 14 15 15 15 17 18 18 18 19 19 18 18 19 20 24 22 21 23 23 23 23 23 22 22 22 22 21 21 20 20 22 21 21 21 20 21 21 22 21 20 18 13 18
12 13 13 14 14 15 15 16 17 18 18 18 19 19 18 18 19 20 22 20 21 21 22 23 23 22 22 22 22 22 21 20 20 20 20 20 21 20 21 21 21 22 20 21 21 18 19
12 13 13 14 14 14 15 16 17 18 19 19 19 22 17 18 19 23 21 20 21 20 21 22 22 21 22 21 22 21 20 20 20 20 21 20 20 20 20 21 21 21 20 20 20 19 19
12 13 13 14 14 14 15 16 17 19 19 19 18 21 17 18 22 20 21 21 19 21 21 21 21 21 21 20 20 20 20 20 19 19 20 18 19 19 20 19 19 20 20 20 19 18 18
12 12 13 13 14 14 15 16 17 17 18 18 22 21 17 17 20 18 19 19 20 21 20 21 20 20 20 20 19 20 19 18 18 20 19 19 19 19 20 19 19 19 19 18 17 16 17
12 12 13 13 14 14 15 16 17 17 18 19 21 19 20 20 18 21 21 20 20 19 19 20 19 20 20 20 19 19 19 18 17 18 12 17 18 19 20 20 19 18 19 19 18 16 17
12 12 12 13 14 14 15 16 17 17 18 18 19 19 17 19 19 21 21 20 20 20 19 20 20 21 20 18 19 18 19 18 17 14 17 18 18 18 18 18 18 18 18 18 18 18 16
12 12 12 13 13 14 14 15 17 18 18 17 20 19 17 17 18 20 18 20 20 19 20 20 20 19 20 19 20 18 19 19 19 18 18 17 17 14 15 16 17 17 18 18 18 18 18
11 12 12 12 13 13 14 15 16 18 18 18 13 14 20 12 17 19 19 20 20 20 18 20 20 20 17 19 20 18 18 17 18 18 17 16 15 14 14 14 14 14 17 18 18 18 17
11 11 11 12 12 13 14 14 16 17 18 17 14 17 18 16 17 19 19 19 19 19 19 18 19 17 17 16 16 17 16 15 16 15 15 11 13 11 13 12 14 17 19 18 17 18 19
10 11 11 11 12 12 13 14 15 16 17 18 15 16 16 11 16 17 19 18 18 18 18 18 16 15 17 17 16 12 15 11 12 13 13 14 12 11 12 14 16 17 17 17 16 16 16
10 10 11 11 11 11 12 13 14 15 16 17 15 15 16 11 16 18 18 19 18 17 16 14 14 13 16 14 13 13 16 16 17 15 11 12 11 13 12 12 13 17 16 16 16 15 15
9 10 10 11 11 11 11 13 14 14 15 16 15 15 17 15 15 16 18 18 17 17 17 15 15 13 14 11 13 13 16 14 16 13 11 10 10 11 12 12 14 16 15 15 13 13 13
9 9 10 10 11 11 11 12 13 14 14 15 14 15 15 14 15 14 15 16 16 18 17 14 15 13 12 10 11 12 11 14 14 15 14 15 13 11 11 11 11 15 15 12 14 13 10
9 9 9 10 10 11 11 11 12 13 14 15 14 15 15 16 15 11 12 12 14 18 17 14 16 15 16 13 10 9 9 8 12 14 15 14 15 15 14 15 17 17 16 15 13 12 8

GFSGBSN_925_temp_015.txt.gz
Temp
9 10 11 11 12 11 12 11 11 12 14 14 14 14 14 14 13 14 15 16 17 18 19 20 20 21 21 26 28 27 26 27 26 28 30 32 31 31 30 31 31 30 30 30 30 29 30
10 11 11 11 12 12 12 11 13 14 14 14 14 14 14 15 15 16 16 17 18 19 20 20 20 21 21 27 27 27 27 28 29 30 31 31 32 32 31 31 31 30 30 30 30 29 29
10 11 11 12 12 12 13 14 14 14 14 14 14 14 15 15 16 17 17 18 19 20 20 20 20 19 26 28 27 28 28 28 28 29 31 30 31 31 31 29 30 30 29 29 29 29 29
11 11 12 12 12 13 14 15 15 15 15 15 15 15 15 16 17 17 18 19 20 20 20 20 21 20 27 27 27 28 28 29 28 29 29 29 30 31 31 30 30 29 30 29 29 29 29
11 12 12 12 12 13 14 15 15 16 16 16 16 16 17 17 18 18 19 19 20 20 21 21 21 23 27 26 28 27 27 29 29 28 28 28 30 30 29 29 29 30 30 29 28 29 29
11 12 12 12 13 13 14 15 16 16 16 17 17 17 18 18 18 19 19 20 20 21 21 19 24 27 27 28 27 27 27 27 29 29 29 30 30 30 31 30 29 30 29 29 29 29 29
11 12 12 12 13 14 15 16 16 17 17 17 18 18 18 19 19 19 20 19 24 24 26 27 28 27 28 27 27 28 27 28 29 30 29 30 30 29 28 28 28 29 29 29 29 28 27
12 12 12 13 13 14 15 16 17 17 18 18 18 18 19 19 19 20 20 26 25 26 25 27 27 27 27 27 28 28 28 29 29 29 29 29 28 27 27 27 28 28 28 28 28 27 27
12 12 12 13 13 14 15 16 17 18 18 19 18 18 19 19 20 20 23 23 22 23 27 26 27 27 27 28 27 27 29 29 29 29 29 28 27 26 27 27 27 28 27 26 26 27 28
12 13 12 13 14 14 15 16 17 18 19 19 19 19 19 20 20 23 24 21 21 21 26 25 27 27 27 28 26 27 26 28 28 28 28 27 26 26 27 26 26 26 26 25 25 26 27
13 13 13 13 14 14 15 17 18 18 19 20 20 20 20 20 23 25 22 21 21 23 24 25 26 26 28 27 27 27 26 28 27 27 27 26 26 26 26 25 25 26 24 25 25 26 27
13 13 13 13 14 14 15 17 18 19 19 20 20 20 20 20 22 21 20 20 22 24 23 25 27 26 26 27 26 27 27 28 27 27 28 26 26 26 25 25 25 25 25 25 26 27 25
13 12 13 13 14 14 15 16 18 19 19 20 20 19 19 21 24 19 20 23 25 23 25 25 25 26 26 25 25 26 26 25 26 25 25 26 25 25 25 26 26 26 26 25 24 24 25
13 12 13 13 14 14 15 16 18 19 19 19 19 19 19 19 19 19 21 25 23 25 26 26 26 26 25 26 25 25 26 25 25 26 26 26 24 25 24 24 24 25 25 23 22 23 25
13 12 13 13 14 14 15 16 18 18 18 19 19 19 20 18 18 19 25 23 24 25 26 25 26 25 24 25 25 25 24 24 23 24 25 25 24 24 23 24 24 24 23 23 22 18 20
13 12 13 13 14 14 15 16 17 18 18 19 21 22 22 19 20 21 24 22 24 25 26 26 25 25 25 25 25 25 24 23 23 23 24 23 23 23 24 24 24 24 24 23 23 19 21
12 13 13 14 14 15 15 16 18 18 18 19 22 24 19 19 19 25 23 24 24 24 25 25 25 24 25 24 25 24 23 22 23 23 24 23 23 23 23 23 24 24 23 22 23 22 20
12 13 13 13 14 15 15 16 17 18 19 19 22 23 18 18 24 24 24 24 20 24 24 24 25 25 25 24 24 23 23 23 22 22 22 21 22 21 23 22 22 23 23 23 20 20 20
12 13 13 13 14 15 15 16 17 18 19 22 24 23 19 19 21 21 23 22 24 23 24 24 23 24 24 23 22 23 22 20 21 22 21 22 21 21 23 22 22 22 22 22 20 18 18
12 13 13 13 14 15 15 16 16 18 19 20 24 21 23 23 24 24 23 23 22 23 22 23 23 24 23 23 23 22 21 20 20 21 14 18 22 21 21 22 22 21 22 22 21 18 19
12 12 13 13 14 15 15 15 16 18 19 19 24 23 22 21 22 24 24 24 23 22 23 24 23 24 23 21 22 22 22 20 20 14 19 21 19 20 21 22 22 21 21 21 21 21 19
12 12 13 13 14 14 15 15 16 18 19 21 23 22 22 22 23 23 20 23 23 22 23 23 23 23 23 21 22 21 22 22 21 20 20 20 18 17 17 20 21 20 21 21 21 21 20
12 12 13 13 13 14 15 16 16 18 19 22 19 19 23 16 22 22 22 23 23 22 21 24 23 23 21 22 22 21 21 21 21 20 19 18 17 17 16 17 16 15 19 21 21 21 20
11 11 12 13 13 14 14 15 16 17 18 20 19 22 19 19 21 23 22 23 23 23 22 22 23 20 19 21 20 20 19 19 19 18 19 15 16 14 14 13 15 20 21 21 20 20 21
11 11 11 12 13 13 14 15 16 17 18 18 17 21 18 15 22 21 22 23 21 21 21 20 19 20 20 20 18 15 15 11 14 17 17 18 15 13 13 16 18 19 18 18 17 17 20
10 11 11 11 12 13 13 14 15 16 17 16 15 15 20 13 17 22 22 21 20 19 19 17 17 18 19 17 15 13 17 19 18 16 15 15 15 15 13 13 14 18 19 18 18 16 17
10 10 10 11 11 12 13 14 15 15 16 16 15 16 20 18 19 21 20 21 22 21 20 18 17 16 18 13 13 14 18 18 18 14 11 11 11 13 13 13 15 19 18 18 15 15 16
9 10 10 10 11 11 12 13 14 15 16 16 15 16 17 17 18 18 19 19 20 21 18 18 18 17 16 12 12 14 12 17 17 19 15 14 13 11 13 12 13 18 17 14 16 16 15
9 9 10 10 10 11 11 12 13 14 15 16 18 16 15 19 17 15 15 15 16 19 21 18 19 18 18 16 13 13 13 11 13 16 19 17 17 16 16 17 19 18 17 16 16 14 11

GFSGBSN_925_temp_021.txt.gz
Temp
11 10 10 11 12 12 13 13 13 13 14 14 14 14 14 14 14 14 14 16 16 17 17 18 17 17 17 18 22 28 28 27 27 26 25 25 25 26 26 27 29 26 27 27 27 27 27
10 10 11 12 12 13 13 13 13 15 15 14 14 14 14 14 14 14 15 16 16 17 18 17 16 18 17 22 28 28 28 28 28 26 27 26 28 29 29 27 27 27 27 26 27 27 28
10 10 11 12 12 13 13 13 14 15 14 14 14 14 14 14 14 15 16 17 17 18 18 18 17 17 19 22 27 28 29 29 29 29 28 30 30 27 28 28 29 27 26 26 26 26 27
11 11 12 12 13 13 13 13 15 15 15 15 15 15 15 15 15 16 17 18 18 18 19 18 17 17 20 27 28 28 29 29 30 30 29 30 30 27 28 28 29 28 26 24 26 26 26
11 12 12 13 13 13 13 14 15 15 15 15 15 15 15 16 16 17 17 18 19 19 19 18 18 18 22 27 27 28 29 28 30 29 29 29 29 28 29 25 24 25 23 25 26 26 26
11 12 12 13 13 13 13 15 15 15 16 16 16 16 16 16 17 18 18 19 19 20 20 17 18 20 23 27 28 28 28 29 28 29 28 28 25 25 23 22 23 24 25 24 24 27 27
11 12 13 13 13 13 14 15 15 16 16 16 16 17 17 17 17 18 18 18 17 19 18 21 23 24 27 28 28 28 29 28 28 28 25 25 23 22 25 26 27 26 26 24 24 26 27
11 12 13 13 13 13 14 15 16 16 16 17 17 17 17 18 18 18 17 17 23 24 21 24 25 26 28 28 27 27 29 27 27 24 25 25 23 26 28 28 27 27 25 23 25 26 25
12 12 13 13 13 13 14 15 16 16 17 17 17 18 18 18 18 18 18 20 23 24 22 26 27 27 27 27 26 27 28 26 26 25 25 23 25 27 27 24 24 24 23 23 24 24 25
12 12 13 13 13 14 14 15 16 17 17 17 18 18 19 19 18 21 20 23 23 23 20 24 26 27 27 27 25 28 28 26 27 25 24 24 26 26 26 24 24 23 24 24 24 22 21
12 13 13 13 14 14 14 15 17 17 18 18 18 18 19 19 19 20 23 23 23 22 16 24 26 27 28 26 25 26 28 26 25 26 24 25 25 23 23 24 24 24 25 24 24 22 22
13 12 13 13 14 14 14 16 17 17 18 18 18 19 19 19 20 21 22 22 23 17 19 25 25 25 25 26 27 26 27 27 27 25 23 24 25 24 23 25 25 25 24 23 23 21 17
12 12 13 13 14 14 14 15 17 18 18 19 19 20 20 20 19 21 22 20 16 16 25 24 24 25 25 25 25 25 25 24 22 23 23 24 24 24 25 23 25 23 21 16 17 15 16
13 13 13 13 14 14 14 15 17 18 18 19 19 20 20 20 21 21 22 18 20 25 25 26 25 25 24 25 25 25 24 22 22 22 22 21 21 22 24 23 23 22 22 14 19 15 16
13 13 13 14 14 14 14 15 16 17 18 19 19 20 20 21 21 21 17 16 20 24 26 25 25 24 24 25 25 24 21 22 21 21 21 21 21 23 23 23 23 22 19 23 17 17 13
12 13 13 13 13 14 14 15 16 17 18 19 19 20 21 21 22 21 16 17 23 25 26 26 24 24 23 23 24 23 23 22 22 22 22 22 21 23 24 24 24 22 23 18 15 17 18
12 13 13 14 13 14 14 15 16 17 18 19 19 17 20 20 22 16 16 19 24 25 23 24 24 25 24 23 24 23 22 22 22 23 21 20 20 21 23 21 21 20 20 20 20 15 14
12 13 13 14 13 14 14 15 16 17 18 18 18 17 19 20 17 16 18 24 20 24 24 25 24 25 24 24 23 22 20 21 21 20 21 20 18 16 21 22 23 23 21 20 13 17 12
12 13 13 13 14 14 14 15 16 17 18 19 17 16 19 19 14 13 21 23 25 23 24 25 23 23 24 22 21 20 19 20 19 18 18 19 18 14 18 20 21 22 22 21 16 12 15
12 12 13 13 13 14 14 15 15 17 18 18 16 15 16 16 17 20 22 22 22 23 23 24 23 24 23 22 23 20 19 20 19 19 15 17 20 17 14 19 20 20 20 21 17 11 13
12 12 12 13 13 14 14 15 16 17 17 18 16 17 17 15 17 19 21 21 21 22 23 24 23 23 22 21 21 19 18 19 19 17 19 18 17 18 18 19 20 20 19 18 18 17 15
12 12 12 13 13 14 14 15 16 17 18 18 17 18 19 17 20 21 18 22 21 22 22 22 22 22 21 20 19 19 19 18 19 19 19 17 13 16 17 17 17 17 16 17 18 19 18
12 12 12 13 13 14 15 15 16 17 18 18 21 21 17 15 19 17 19 23 23 21 22 22 22 17 15 18 17 17 17 17 18 18 17 15 12 11 12 13 12 12 16 18 19 19 18
11 12 12 12 13 13 14 15 16 17 18 18 19 18 13 14 17 19 22 22 20 22 21 19 18 16 18 17 15 14 14 15 17 17 16 13 12 8 9 9 11 17 19 18 17 17 17
11 11 12 12 12 13 14 15 16 17 18 19 19 17 12 9 17 20 23 22 19 17 17 17 18 18 17 16 11 13 10 11 13 16 16 15 9 7 9 10 13 17 18 16 16 15 15
11 11 11 12 12 13 14 15 16 17 18 19 18 18 14 10 13 20 21 18 15 15 15 16 17 17 16 8 8 10 11 14 13 15 13 13 10 8 9 8 8 13 17 17 17 11 14
10 11 11 11 12 12 13 14 15 16 17 18 17 18 17 12 16 17 17 17 17 15 13 15 16 16 13 7 9 9 11 15 13 11 8 9 10 7 6 6 9 14 17 17 12 11 13
10 10 11 11 11 12 13 14 15 16 17 17 17 17 17 12 15 15 15 17 18 14 12 14 12 11 7 10 9 8 8 10 13 13 10 9 8 7 10 10 9 15 17 13 12 12 11
10 10 10 11 11 12 12 13 15 16 16 17 17 17 18 13 13 16 16 16 16 16 14 14 14 14 11 9 7 8 9 10 9 11 14 13 11 9 10 10 12 16 14 13 13 11 10

GFSGBSN_925_temp_024.txt.gz
Temp
11 11 11 11 11 12 12 12 13 13 14 14 14 14 14 14 14 14 14 14 14 13 15 15 17 18 17 17 20 27 27 26 25 23 23 23 24 24 24 25 26 24 26 25 25 25 25
11 11 11 12 12 12 13 13 13 14 14 14 14 14 14 14 14 14 14 15 15 15 16 16 17 17 15 19 26 27 27 26 25 24 25 24 25 26 25 25 25 25 25 25 26 26 27
11 11 11 12 13 12 12 13 14 14 14 14 14 15 14 14 14 14 15 16 16 16 16 17 17 16 15 20 27 27 26 28 28 27 26 27 28 27 26 26 25 24 25 25 26 26 26
11 11 12 12 13 13 13 13 14 14 15 14 15 15 14 14 14 15 16 17 17 17 17 17 16 15 18 26 26 27 28 29 29 29 29 29 29 27 27 27 26 26 23 23 25 25 26
11 11 12 12 13 13 13 14 14 15 15 15 15 15 15 15 15 15 16 17 17 17 17 17 15 15 21 26 27 28 28 28 28 29 29 29 28 25 24 22 21 22 22 23 25 23 25
11 11 12 12 13 13 13 14 14 15 15 16 15 15 15 15 16 16 17 18 18 18 17 15 16 19 22 24 27 28 28 28 27 27 25 26 21 22 21 21 21 22 22 22 23 24 24
11 11 12 12 13 13 14 14 15 16 16 16 16 16 16 16 17 17 17 17 16 17 17 20 21 22 24 26 27 28 28 28 27 26 24 23 22 22 24 23 24 24 22 22 24 25 26
11 11 12 12 12 13 13 14 15 16 16 16 16 16 17 17 17 18 18 16 20 22 21 21 21 22 24 27 26 26 28 26 26 24 24 21 23 24 25 24 23 24 22 23 24 24 24
11 11 12 12 13 13 13 15 15 16 16 17 17 17 17 18 18 18 17 19 22 21 20 24 23 23 26 27 25 25 26 25 25 24 24 21 24 26 24 22 23 21 21 23 23 23 23
11 12 12 13 13 13 14 15 16 17 17 17 17 17 17 18 18 18 19 23 23 22 17 23 25 26 27 25 25 26 27 26 25 23 22 24 25 23 23 23 23 22 23 23 23 21 21
11 12 12 13 13 13 15 15 16 17 17 17 17 17 18 18 18 18 21 22 22 21 16 23 25 27 27 26 24 25 27 26 25 25 22 23 22 22 22 23 24 23 24 23 23 21 20
12 12 13 14 13 13 14 15 17 17 18 18 18 17 18 17 18 20 21 22 21 15 18 23 24 24 25 25 24 25 26 25 25 23 22 23 23 23 23 23 24 24 23 20 20 19 16
11 12 13 14 13 13 14 16 17 17 18 18 18 18 18 18 19 21 22 19 15 15 23 23 23 23 24 24 24 24 23 21 20 21 21 22 22 23 24 22 22 21 18 15 16 15 16
11 13 13 13 12 13 15 16 17 17 18 18 18 18 19 19 20 21 21 17 19 21 23 24 23 22 23 24 24 23 22 20 20 21 20 19 19 21 22 22 22 22 19 14 19 15 16
12 13 13 13 12 14 14 16 17 17 19 18 18 18 19 21 21 21 15 15 18 22 24 24 23 22 23 24 23 21 21 20 21 21 20 19 20 22 23 23 22 21 19 20 16 14 13
12 13 13 12 13 14 15 16 17 17 18 18 18 19 20 21 21 20 15 15 20 23 23 24 23 22 22 22 23 21 21 21 22 21 20 21 20 22 23 22 22 21 21 17 13 16 18
12 12 12 12 13 14 15 16 16 17 18 18 18 15 19 20 21 14 15 17 23 23 22 23 23 23 22 21 22 21 20 20 20 21 19 20 19 19 21 20 20 19 19 18 17 13 14
12 12 12 12 13 14 14 15 16 17 17 17 15 15 18 19 15 13 16 20 22 23 23 23 23 22 22 22 20 19 19 20 18 19 20 19 16 14 20 21 22 21 20 17 12 17 11
12 12 12 13 14 14 14 15 16 17 17 18 14 14 18 18 13 11 17 22 23 23 23 24 23 22 22 21 18 19 18 18 17 18 18 19 16 13 16 18 19 20 21 17 14 11 14
12 12 12 13 14 14 14 15 16 17 17 18 13 14 14 13 13 17 20 22 22 21 22 22 22 22 21 21 18 18 18 18 18 18 14 17 17 16 15 18 18 20 20 17 15 11 13
12 12 12 13 14 14 14 15 16 17 17 17 14 15 15 14 15 18 19 20 21 21 22 22 22 22 21 20 19 17 18 18 18 16 19 16 16 17 17 17 18 19 18 17 17 15 14
12 12 12 13 13 14 14 15 16 17 17 17 16 16 14 14 17 18 17 19 20 21 21 22 21 20 20 18 18 17 17 17 17 18 18 14 13 15 17 15 14 16 16 15 16 17 17
12 12 13 13 13 14 14 15 16 17 18 17 18 17 15 13 15 16 17 19 19 20 21 20 17 15 14 17 15 14 15 16 16 17 15 14 11 10 12 11 12 11 15 17 18 16 17
11 12 12 12 13 13 14 15 16 17 18 18 18 16 13 13 15 16 20 21 19 20 18 18 17 16 17 15 15 14 13 14 15 14 15 11 9 6 8 8 11 16 16 17 16 16 13
11 12 12 12 12 13 14 15 16 16 18 18 18 16 11 9 14 19 20 16 16 15 16 16 15 16 14 14 10 13 9 11 12 13 12 13 7 7 8 9 12 16 16 16 16 14 13
11 11 12 12 12 13 14 15 16 17 18 19 17 17 12 10 13 16 16 16 14 14 13 15 15 15 11 6 8 10 11 13 13 14 12 11 8 7 8 8 9 13 16 16 15 11 13
11 11 12 12 12 13 14 15 16 17 18 19 17 18 16 12 14 16 15 16 14 12 12 14 16 15 11 5 9 7 11 13 12 11 8 8 6 7 2 5 8 11 15 15 12 12 11
11 11 11 11 12 13 14 15 16 17 17 18 16 17 17 10 13 14 14 16 14 13 11 13 12 10 7 8 6 9 6 9 11 12 10 9 8 7 5 5 10 12 15 13 11 11 10
10 10 11 11 12 12 13 14 15 16 17 18 17 16 17 12 13 15 15 15 15 16 12 12 13 11 10 8 7 9 6 9 8 10 12 12 10 10 10 10 12 13 14 13 11 10 9

GFSGBSN_925_temp_027.txt.gz
Temp
11 11 11 11 11 11 12 13 13 13 13 13 14 14 15 15 14 14 13 12 12 12 12 15 15 16 15 17 19 26 26 26 24 23 22 21 22 23 24 23 24 25 25 24 24 24 24
11 11 11 11 11 12 12 13 13 13 14 14 14 14 14 14 14 14 13 13 13 14 14 15 15 15 15 20 26 25 25 25 24 23 22 22 23 23 24 24 25 24 24 24 25 24 25
11 11 11 11 11 12 12 13 13 14 14 14 14 14 14 14 14 14 13 14 15 15 15 15 15 14 15 20 26 26 25 26 25 24 23 24 24 24 24 23 24 23 24 25 25 25 26
11 11 11 11 11 12 12 13 13 14 14 14 14 14 14 14 14 14 14 15 15 16 15 15 15 13 17 25 26 26 27 27 27 26 26 28 26 25 26 24 22 24 21 22 24 25 23
11 11 11 11 11 12 12 13 13 14 14 15 14 14 14 14 14 14 15 14 15 16 15 14 14 14 20 25 25 27 27 27 28 27 27 28 26 22 22 21 20 19 22 23 24 24 24
11 11 11 12 11 12 13 13 13 14 15 15 14 15 14 14 15 15 16 14 15 16 15 13 14 17 22 24 26 27 27 28 26 26 24 23 20 21 19 20 21 22 23 21 22 23 23
12 11 11 12 11 12 13 13 13 14 15 15 15 15 15 15 16 16 15 15 14 15 14 19 20 21 23 25 26 27 27 27 25 23 23 22 21 22 23 23 24 23 21 21 22 23 22
12 11 11 11 11 12 13 13 13 15 15 15 15 16 16 16 16 16 16 15 19 20 19 18 19 20 22 24 24 26 27 25 24 23 23 21 22 24 22 22 23 22 21 22 23 22 22
12 11 11 11 12 12 13 13 14 15 15 16 16 16 16 16 16 15 16 19 21 20 19 22 21 22 22 24 24 25 26 24 24 24 23 22 24 23 22 21 22 21 21 22 23 21 20
12 12 12 11 12 13 13 13 14 15 16 16 16 16 16 16 15 17 18 21 21 21 17 22 24 24 26 24 24 25 26 25 24 23 21 22 22 22 21 22 21 22 22 22 22 20 19
12 11 12 12 12 13 13 14 14 15 16 16 16 17 17 16 17 16 20 21 21 20 15 22 24 26 25 25 24 25 26 25 24 23 22 22 22 22 22 23 23 22 22 22 22 19 19
12 11 12 11 12 13 13 14 14 16 16 17 17 17 17 16 17 20 20 21 21 15 18 22 24 24 24 24 24 24 24 22 23 21 21 22 22 22 23 23 23 23 21 18 17 17 16
12 12 12 11 12 13 14 14 15 16 17 17 17 18 18 17 18 20 21 18 15 14 22 21 22 23 23 23 23 23 21 19 20 20 20 21 21 21 22 22 22 20 18 15 16 14 15
11 12 11 12 12 13 14 14 15 17 17 17 17 18 18 19 19 20 21 16 18 20 21 22 22 22 22 23 21 21 20 19 20 20 18 18 19 21 21 22 21 20 18 14 19 15 15
12 12 11 11 12 13 14 14 15 17 17 17 18 17 18 20 19 20 15 14 17 18 23 22 22 21 22 23 21 20 20 19 20 20 20 19 20 22 22 22 21 21 17 18 14 12 13
12 12 11 12 12 13 14 14 15 17 18 17 18 17 18 19 20 20 14 15 18 21 23 22 21 21 21 22 21 20 20 20 21 19 19 20 19 21 22 22 21 20 19 17 13 16 17
12 12 11 12 13 13 14 14 16 17 18 18 18 15 18 18 20 13 14 15 19 22 23 23 21 21 21 21 20 20 20 19 19 20 19 19 18 18 20 19 19 19 18 16 15 12 13
12 11 11 12 13 14 14 14 16 17 17 17 14 15 17 18 14 11 15 18 20 22 21 22 22 22 20 20 19 19 19 19 17 19 19 18 15 14 19 19 20 20 19 16 12 16 10
12 11 11 13 13 14 13 14 16 17 17 17 13 13 17 18 12 10 16 20 21 22 22 22 22 21 21 18 18 18 18 18 17 18 18 18 15 13 16 17 18 20 19 14 12 10 14
11 11 12 13 13 13 13 14 16 17 18 19 12 13 13 12 12 16 19 20 21 21 22 21 21 20 20 18 16 17 17 18 17 17 14 16 15 15 15 17 17 18 18 16 15 11 12
11 12 13 13 13 13 13 14 16 17 17 18 12 14 14 13 14 16 18 20 20 21 22 21 21 21 20 19 18 16 17 17 18 16 16 15 15 16 15 15 17 18 17 15 15 14 14
11 12 13 13 13 13 14 15 16 16 17 17 13 14 12 13 15 16 16 18 19 20 21 21 20 18 19 18 18 16 16 17 18 17 16 13 12 15 16 13 13 16 16 15 14 15 14
11 12 13 13 13 13 13 15 16 17 17 15 15 15 13 11 13 14 15 18 19 19 18 17 17 15 15 16 15 14 14 14 15 16 14 12 10 10 12 10 12 11 14 15 16 16 15
12 12 12 13 13 13 14 15 16 17 18 18 17 14 12 11 13 15 17 19 18 19 17 17 16 15 17 13 14 13 12 12 13 12 13 10 7 5 8 7 11 15 14 15 16 15 14
12 12 12 12 13 13 14 15 16 17 19 18 18 14 11 8 13 17 16 15 15 14 14 15 14 14 13 12 10 13 9 11 11 11 11 11 7 6 7 9 12 16 15 14 15 14 12
12 12 12 12 13 13 14 15 16 17 18 18 17 16 12 11 14 16 15 15 13 13 13 15 14 13 11 6 8 10 12 14 13 13 11 9 7 7 6 8 9 13 14 14 15 11 11
11 12 12 12 12 13 14 15 16 17 18 18 16 16 15 11 13 15 14 14 12 12 11 14 15 14 11 4 5 8 11 12 12 11 8 8 5 6 2 5 9 11 14 15 13 12 10
12 12 12 12 12 13 14 15 16 17 18 19 15 17 17 9 12 13 13 14 12 12 11 12 12 10 6 8 7 7 5 9 10 11 10 9 9 8 6 6 11 12 14 13 12 11 10
11 11 11 12 13 13 14 15 16 17 18 18 16 16 17 11 12 14 13 14 14 15 11 10 13 11 10 7 5 6 5 8 7 10 11 11 10 9 10 10 12 11 13 12 10 10 9

GFSGBSN_925_temp_030.txt.gz
Temp
12 12 11 11 11 11 11 11 12 13 13 13 13 13 14 14 13 13 11 10 10 10 12 12 14 13 13 15 18 24 25 25 23 22 22 20 20 21 22 22 23 23 25 23 22 22 21
12 12 11 11 11 11 11 11 13 13 13 13 13 13 14 14 14 13 12 12 12 12 13 13 13 13 12 18 24 24 24 24 24 22 21 21 21 22 23 23 24 23 23 23 23 23 23
12 12 12 11 11 11 11 12 12 13 13 13 13 14 14 14 14 13 13 13 12 14 12 13 13 12 13 18 24 24 24 24 24 23 21 22 23 23 22 23 24 23 24 23 23 24 24
12 12 12 11 11 11 12 12 12 12 13 13 13 14 14 14 14 13 13 13 14 14 13 13 12 11 15 24 25 25 26 25 24 24 23 25 23 22 24 23 21 22 21 22 24 24 22
12 12 12 11 11 11 12 13 12 12 13 13 13 14 14 14 14 13 13 13 14 15 13 13 12 12 18 25 25 27 26 26 26 25 24 24 24 22 22 20 20 19 21 22 24 23 23
12 12 12 12 11 11 12 13 12 12 13 13 14 14 14 15 14 13 13 11 13 14 13 12 13 15 20 24 25 26 27 27 26 25 24 23 19 20 19 20 20 21 22 21 23 23 23
12 12 12 12 12 11 12 13 12 12 13 13 14 14 15 14 13 13 12 12 13 14 12 17 19 19 22 23 24 26 26 26 24 22 23 21 20 21 22 22 22 22 22 22 21 22 19
13 12 12 12 12 12 12 12 13 13 13 14 14 14 15 14 14 13 12 13 18 19 18 16 17 19 21 23 23 25 26 25 24 22 23 20 21 22 21 21 20 20 20 22 22 20 19
12 12 12 12 12 12 12 12 12 13 13 14 15 15 15 14 11 11 14 17 20 19 18 21 19 20 22 22 23 23 25 24 23 23 21 20 22 22 22 20 21 20 21 22 22 21 18
12 12 12 12 12 12 12 12 12 13 14 14 15 15 15 14 13 16 16 20 19 19 16 21 22 23 24 24 24 24 25 24 22 22 21 21 21 21 21 21 20 22 21 22 20 19 18
12 12 12 12 12 12 12 12 13 13 14 15 15 15 15 16 16 15 20 20 19 19 16 21 23 25 24 23 23 24 23 24 22 21 21 22 22 21 21 22 22 22 20 20 20 17 18
11 12 12 12 12 12 12 12 13 13 15 15 15 15 15 14 16 19 20 20 19 15 17 22 23 23 23 23 23 23 22 20 21 20 19 20 21 21 22 21 21 20 19 17 16 16 15
9 12 12 11 12 12 12 13 13 14 15 15 15 15 15 16 17 19 19 17 15 14 21 21 21 23 22 22 21 21 20 19 20 19 19 19 20 20 21 21 21 18 17 15 16 14 15
7 12 12 12 12 12 12 12 13 14 15 15 15 15 15 17 18 19 19 16 18 19 19 21 21 21 21 22 20 20 20 19 19 18 17 18 18 21 20 21 20 19 18 14 19 15 15
6 11 12 12 12 12 13 12 13 14 15 15 15 13 15 19 18 18 14 13 16 17 21 20 21 21 21 21 20 19 19 18 19 19 19 18 20 21 21 21 21 19 17 17 13 12 12
7 10 12 12 12 12 12 13 13 14 15 15 14 15 16 18 18 17 13 15 18 18 21 21 20 20 20 21 20 19 20 19 20 18 19 19 19 20 21 21 19 20 17 16 12 16 17
9 10 11 12 12 13 12 13 13 15 16 15 16 14 16 17 18 13 14 16 18 19 21 22 20 20 20 20 19 19 19 19 18 19 19 18 17 18 20 19 19 18 17 14 14 11 13
8 11 11 12 13 13 13 13 13 15 15 13 13 14 15 17 14 10 14 16 19 21 21 21 21 21 19 19 18 19 18 18 16 18 19 17 14 15 19 19 18 19 18 15 12 16 9
9 11 11 12 13 13 13 13 14 15 15 16 12 13 15 17 12 10 15 19 20 21 21 21 21 20 19 17 17 17 17 17 17 18 17 16 15 13 16 17 18 19 17 13 12 10 13
10 11 11 12 12 13 13 13 15 16 16 15 12 12 12 11 11 15 18 19 20 20 20 20 19 19 18 17 15 16 17 17 17 17 14 15 14 15 15 17 16 18 17 15 14 10 12
11 11 11 12 12 13 13 14 16 16 16 14 11 13 13 13 13 15 17 19 20 20 21 19 20 20 18 18 17 16 16 17 17 15 15 15 15 15 14 14 16 17 16 14 15 14 14
11 10 11 12 12 13 13 14 16 16 15 15 13 12 10 11 13 15 15 18 19 19 19 20 19 17 19 17 17 15 16 16 17 15 15 12 12 15 15 12 12 15 15 14 14 14 13
10 10 11 12 12 13 13 14 16 16 15 14 13 13 12 9 12 14 13 16 18 18 17 17 17 16 17 17 14 13 13 12 15 15 13 12 10 11 12 9 11 11 13 13 14 13 13
10 11 12 12 13 13 13 15 16 16 17 18 16 13 11 10 11 14 16 18 17 18 17 15 16 15 15 12 12 13 12 11 12 11 11 10 9 5 8 7 11 15 14 14 14 14 13
10 11 11 12 13 13 14 15 16 16 16 18 17 14 10 7 11 16 15 14 14 13 14 14 13 12 12 12 10 13 10 11 11 10 9 10 7 6 7 8 12 17 14 13 14 14 12
11 11 12 13 13 13 14 15 16 16 17 18 16 17 11 10 12 15 14 14 13 12 13 14 12 12 10 5 8 10 12 14 14 13 10 9 7 8 4 8 9 13 14 14 15 12 12
11 11 12 12 13 13 14 15 16 16 17 18 16 16 13 10 12 14 14 14 12 11 11 13 14 14 11 4 5 8 11 12 12 11 8 7 5 6 2 5 9 11 14 14 13 13 10
11 11 12 12 13 14 14 15 16 16 17 19 14 16 14 9 11 12 13 12 12 11 11 11 11 10 6 9 7 6 5 8 10 11 9 9 9 9 6 4 11 11 14 13 12 11 10
11 11 12 13 13 14 14 15 16 17 17 19 16 15 15 10 11 13 13 13 13 14 10 10 13 11 10 7 3 5 6 7 7 10 10 11 10 8 9 10 11 11 12 12 10 11 10

GFSGBSN_925_temp_033.txt.gz
Temp
13 13 12 12 12 11 11 11 11 12 13 13 13 13 12 13 13 12 9 11 10 11 11 10 9 9 12 15 18 24 24 25 22 21 22 21 21 22 22 22 23 23 24 23 23 23 24
13 13 13 12 12 11 11 11 11 12 12 12 13 13 13 14 13 12 11 12 11 12 11 9 9 9 12 18 23 24 23 23 22 21 20 21 22 22 23 23 24 23 23 23 23 23 23
13 13 13 12 12 12 11 11 11 11 12 12 13 13 13 13 13 12 12 12 13 10 11 10 9 10 12 19 23 23 23 23 23 22 20 21 22 23 23 23 23 23 24 24 23 24 23
12 13 13 12 12 12 12 11 12 12 12 12 13 13 14 13 13 13 13 13 13 9 11 10 9 10 16 23 23 23 24 23 22 22 22 23 22 22 23 22 22 23 22 24 24 24 22
11 12 13 12 12 12 12 12 12 12 12 12 13 13 13 14 13 13 13 14 11 10 11 10 10 11 19 24 23 25 25 25 22 21 22 22 22 22 22 23 23 22 23 23 24 23 24
11 12 12 12 12 12 12 12 12 12 13 13 13 13 13 14 12 13 13 13 11 10 10 10 11 14 20 23 24 25 26 26 23 22 22 22 21 22 21 24 24 23 23 23 24 24 22
10 10 12 13 12 12 12 12 12 12 13 13 13 13 14 13 11 13 13 11 11 12 11 17 18 18 20 23 23 25 26 25 24 23 23 21 24 24 24 22 22 22 23 23 22 21 20
9 11 11 12 13 12 12 12 12 12 13 13 13 14 14 11 11 12 12 10 16 19 18 15 16 17 19 21 23 24 25 25 23 23 22 23 22 22 21 21 21 21 22 22 21 20 20
9 9 10 12 13 12 12 12 12 12 13 13 13 14 13 9 11 9 11 14 18 18 18 20 17 19 21 21 23 23 24 23 23 22 21 22 22 21 21 21 22 21 22 21 22 21 20
8 9 10 11 12 12 12 12 12 12 13 13 13 13 11 11 11 12 12 19 18 17 18 21 21 22 22 22 23 23 24 24 22 22 20 21 21 21 21 21 21 22 21 21 21 22 23
7 9 9 11 12 12 12 12 12 12 13 13 13 13 11 14 14 14 18 18 18 18 17 21 22 24 22 23 23 24 22 23 22 21 21 21 21 21 21 21 21 21 20 20 20 20 21
7 8 9 9 11 12 12 12 12 12 12 13 13 13 10 11 13 18 18 17 18 16 18 21 22 22 22 22 22 22 22 21 20 20 20 20 20 21 21 19 20 19 20 19 18 19 20
7 8 9 8 11 12 12 12 12 12 12 13 13 13 12 13 15 17 17 17 17 16 20 20 21 22 21 21 21 20 20 19 21 21 20 20 20 20 21 21 20 20 21 20 20 20 20
6 7 7 7 10 12 12 12 12 12 12 13 13 11 12 15 16 16 17 17 18 19 19 20 20 21 21 20 20 19 19 20 19 19 19 20 21 21 20 21 21 19 21 19 19 19 19
6 6 6 7 9 11 12 11 12 12 12 13 10 9 11 15 16 14 15 15 17 17 19 20 20 20 20 20 20 19 18 19 19 19 21 20 20 20 20 20 21 19 19 18 16 13 17
6 5 6 7 9 11 12 12 11 12 12 13 11 10 13 16 16 16 15 16 18 18 20 20 20 20 20 20 20 19 19 18 19 18 19 19 20 19 20 20 19 20 18 19 17 18 18
6 6 5 6 6 11 11 12 12 12 12 12 13 13 14 15 16 14 15 16 18 18 19 21 19 19 19 19 19 19 19 18 18 18 18 18 19 19 19 20 20 19 18 16 17 16 18
5 5 5 6 6 10 11 12 12 12 12 10 11 14 13 15 14 11 15 16 18 20 20 20 20 19 19 19 18 18 19 19 16 18 20 17 17 17 19 18 18 19 18 17 18 17 13
5 5 6 6 8 10 11 12 12 12 13 12 12 12 13 15 13 11 15 18 20 20 20 21 20 19 18 17 18 17 17 16 16 18 18 17 17 17 19 19 18 19 17 15 14 14 15
5 5 6 6 9 11 11 11 13 14 14 14 12 13 12 11 11 15 17 19 20 19 20 19 18 18 17 17 16 16 16 16 16 16 13 16 15 18 19 19 17 18 16 15 17 16 16
5 5 6 8 10 11 11 12 13 14 14 13 11 13 13 13 14 15 17 18 19 20 20 19 19 19 18 17 16 16 16 16 16 14 14 16 17 16 15 14 15 17 17 15 17 16 18
5 5 6 9 11 11 11 12 13 14 13 12 12 13 10 12 13 15 15 17 18 18 19 20 18 17 18 17 18 16 16 16 17 15 15 13 15 14 15 13 13 15 16 15 15 15 16
6 6 8 10 10 11 11 12 13 15 13 12 11 12 13 9 12 14 14 16 18 17 16 16 17 16 17 16 14 13 13 13 15 15 13 13 13 13 14 11 13 14 15 16 15 15 17
6 8 9 10 11 11 12 12 14 15 15 17 15 13 11 10 12 14 15 17 17 18 17 15 15 16 14 12 13 14 13 12 13 11 12 11 11 9 13 10 15 17 14 15 16 16 15
8 9 10 11 11 11 12 13 14 15 15 17 16 14 10 8 11 15 15 14 13 13 14 14 13 12 12 13 13 14 12 12 11 11 11 11 10 9 13 13 14 18 14 14 14 17 15
10 10 11 11 11 12 13 14 15 15 16 16 16 16 11 10 11 14 14 14 13 12 13 12 12 11 10 8 11 13 14 15 14 13 10 10 9 13 9 14 15 16 15 14 15 16 15
11 11 11 11 12 12 13 14 15 15 16 17 15 16 14 11 12 13 14 14 12 12 12 12 13 14 11 9 10 12 14 12 14 13 10 10 8 11 7 12 13 13 14 14 16 16 12
11 11 11 11 12 13 14 15 15 15 15 17 14 14 15 9 11 12 13 12 12 12 13 12 13 11 9 11 11 11 11 11 12 12 11 12 11 10 7 10 14 12 14 15 15 12 12
11 11 11 12 12 13 14 15 15 16 16 17 14 14 14 11 11 12 12 12 12 13 11 10 14 12 12 10 8 7 9 7 9 14 10 13 13 12 12 13 13 12 13 13 11 12 13

GFSGBSN_925_temp_039.txt.gz
Temp
10 11 12 13 13 13 13 13 12 12 12 12 12 12 13 13 13 13 14 14 13 12 10 9 9 11 13 21 25 25 24 24 23 22 26 28 27 28 28 29 30 29 30 30 30 30 29
10 11 11 12 13 13 13 13 13 12 12 12 12 12 13 13 13 13 14 14 13 11 10 9 9 10 15 21 26 25 24 22 24 24 27 28 28 29 28 29 29 30 30 29 29 29 30
9 10 10 11 12 12 13 13 13 12 12 12 12 12 13 13 13 13 13 14 13 10 9 10 11 11 18 23 26 26 24 26 26 26 28 28 28 28 28 28 29 29 28 28 28 29 29
9 9 10 10 12 12 12 13 13 12 12 12 12 12 12 12 13 13 13 13 13 13 12 13 11 14 21 25 25 26 26 26 26 26 27 27 27 27 28 28 28 28 28 27 29 29 29
8 9 9 10 10 11 12 12 12 12 12 12 12 12 12 12 13 13 13 13 13 14 13 12 12 16 23 24 25 27 27 28 26 26 26 25 26 27 28 26 27 28 27 28 28 30 29
8 8 9 9 10 11 12 12 12 12 12 12 12 12 12 12 13 13 13 13 13 13 12 13 15 19 23 27 28 28 28 27 28 27 26 26 26 26 27 27 25 27 28 29 28 29 29
7 8 8 9 9 10 11 12 12 12 12 12 12 12 12 12 13 13 13 13 17 18 18 23 25 25 27 27 27 28 28 28 28 28 27 27 26 26 28 28 29 29 29 29 30 29 29
8 8 8 8 9 10 10 11 12 12 12 12 12 12 12 12 12 12 12 19 23 21 22 23 24 25 25 25 27 29 28 28 27 27 28 27 26 28 29 29 29 29 28 28 29 29 29
7 7 7 8 8 9 10 11 11 12 12 12 12 12 12 12 10 9 14 18 20 19 22 25 25 25 26 27 27 29 29 29 27 26 28 25 27 28 28 28 28 28 28 27 28 28 29
7 7 7 8 8 8 9 10 11 11 12 12 12 11 11 11 10 16 16 18 18 18 22 25 24 26 26 27 27 30 29 29 27 26 27 24 26 28 28 28 28 27 28 28 28 28 27
7 7 7 7 8 8 9 9 10 11 11 11 11 11 11 13 15 18 20 20 19 19 21 26 26 28 28 27 28 28 28 29 27 27 27 27 27 28 28 28 28 26 28 28 29 29 28
6 7 7 7 8 8 8 9 10 11 11 11 11 11 11 9 11 17 18 19 19 20 20 25 27 26 26 27 27 29 28 29 29 28 27 23 28 29 28 27 27 27 27 28 28 28 26
5 6 6 7 7 7 8 9 9 10 11 11 11 11 10 13 18 17 17 19 20 21 26 25 26 26 26 26 27 27 27 26 26 25 25 27 27 27 28 27 27 28 27 25 25 25 25
5 5 6 7 7 7 8 9 9 10 11 11 11 10 10 13 15 15 17 18 20 24 25 27 27 26 26 27 26 26 27 26 28 27 27 26 25 27 27 28 27 27 27 25 23 24 26
5 5 6 6 7 7 7 8 9 9 10 10 10 9 11 11 13 14 19 19 22 25 27 26 26 25 26 27 26 26 26 27 27 28 25 25 25 27 27 27 27 27 26 27 25 22 23
4 4 6 6 7 7 7 8 9 8 10 10 11 11 13 14 12 14 17 20 24 26 27 26 25 26 25 26 25 26 26 28 27 27 28 27 25 26 25 26 26 26 27 25 25 22 23
4 3 5 6 7 7 7 8 8 8 10 11 14 15 18 14 14 16 18 21 24 26 26 26 26 26 26 26 26 26 26 26 27 26 27 28 27 25 25 25 27 25 25 25 26 25 23
4 3 5 6 6 6 7 7 7 8 10 11 15 16 15 14 17 17 20 23 23 26 25 26 26 27 26 27 26 26 26 27 27 27 26 27 26 25 25 26 26 26 26 26 23 24 23
3 3 4 6 6 6 7 6 7 8 10 12 15 16 14 16 18 18 21 23 25 25 25 25 25 27 27 26 25 26 26 22 24 25 26 26 25 24 24 25 25 25 26 26 26 23 23
3 3 4 5 6 6 6 6 7 8 10 13 17 15 12 16 20 21 21 23 23 25 25 26 26 27 26 25 26 25 25 22 22 24 16 21 25 25 24 25 26 24 25 26 25 22 23
3 4 5 5 5 6 6 6 7 7 10 11 16 20 18 17 20 19 23 23 23 23 25 25 25 25 25 24 25 24 25 22 22 16 22 24 24 25 25 25 24 25 25 25 25 25 24
3 4 5 5 5 6 5 5 6 6 11 9 16 22 21 20 20 19 20 23 24 25 24 24 25 26 26 25 25 24 25 24 24 22 23 24 23 23 22 24 23 23 24 25 25 25 25
4 4 5 5 5 5 5 5 5 6 7 10 17 22 23 19 20 21 22 23 24 25 22 26 26 26 25 25 25 25 26 26 26 24 23 23 22 21 21 21 21 18 22 24 25 26 25
4 5 5 5 5 5 5 5 5 6 7 14 18 21 22 19 21 22 23 24 24 24 24 24 26 26 22 23 23 23 23 23 22 22 23 21 21 20 19 15 16 24 24 24 23 25 26
5 5 5 4 5 5 4 5 5 7 8 10 13 20 22 16 22 23 23 23 24 23 23 22 20 22 23 23 21 20 19 18 20 21 21 22 20 17 17 20 22 24 24 22 22 23 24
4 5 5 4 5 5 6 6 6 8 9 8 10 16 23 19 21 24 23 24 22 22 20 18 20 20 20 22 20 20 20 22 21 20 20 20 20 20 17 16 16 22 21 21 22 21 22
5 5 5 5 4 5 6 6 7 9 9 8 12 14 22 22 23 24 22 22 24 23 22 18 18 18 19 19 17 20 21 22 21 19 14 16 16 17 18 17 20 23 21 21 20 20 21
5 5 4 5 6 6 7 8 9 10 11 9 14 14 21 20 19 20 22 23 23 24 20 20 20 19 20 18 19 20 18 20 21 22 19 18 17 15 17 15 16 21 21 19 20 21 21
5 5 6 6 7 7 9 9 10 11 11 11 15 15 18 20 18 16 15 16 17 20 23 20 23 21 22 21 18 18 15 13 19 20 21 20 21 21 20 21 21 21 21 21 21 20 20

GFSGBSN_925_temp_042.txt.gz
Temp
9 10 11 13 13 13 13 13 13 13 12 12 12 12 12 12 13 13 13 14 14 13 12 12 13 15 14 20 23 26 25 24 23 22 25 27 27 28 27 29 29 29 30 31 30 30 30
9 10 10 11 13 12 13 13 13 13 12 12 12 12 12 12 13 13 13 14 13 13 11 12 14 15 14 20 27 26 25 23 24 24 26 28 28 29 28 29 29 30 30 30 30 29 30
8 9 9 10 11 13 12 13 13 13 13 12 12 12 12 12 13 13 13 13 14 13 12 13 14 13 18 21 26 27 26 26 26 26 27 28 29 28 29 28 30 29 28 28 29 29 27
8 8 9 10 10 11 12 12 12 12 12 12 12 12 12 12 12 13 13 14 14 13 13 14 14 13 19 25 25 26 27 27 27 27 27 28 28 28 27 28 28 28 28 26 28 28 29
8 9 9 9 9 10 11 11 12 12 12 12 12 12 12 12 12 13 13 14 14 13 14 13 13 16 22 25 26 27 27 28 28 27 27 28 27 27 27 26 26 27 25 26 27 30 29
8 8 8 9 9 9 10 11 12 13 12 12 12 12 12 12 12 13 13 14 13 12 14 13 16 19 22 26 28 28 29 28 28 28 27 26 27 26 26 26 24 24 26 27 27 29 29
8 8 8 8 9 9 9 10 11 13 12 12 12 12 12 12 12 13 13 13 15 16 16 22 24 24 28 28 28 28 29 29 28 27 25 26 25 25 26 27 27 28 27 28 29 30 29
7 8 8 8 8 8 9 10 10 11 12 12 12 12 12 12 12 12 11 17 23 21 20 23 24 25 26 26 26 29 29 28 27 26 22 24 25 27 26 27 28 28 27 27 29 29 28
7 7 8 8 8 8 9 9 10 10 11 12 12 12 11 12 12 11 13 17 19 20 21 25 25 25 26 27 26 28 29 29 28 25 25 24 25 25 28 28 28 28 25 25 26 28 29
6 7 7 8 8 8 8 9 9 10 11 11 11 11 11 11 11 14 16 17 17 19 20 25 26 26 27 28 26 29 30 29 28 26 25 23 23 25 27 28 29 26 26 27 27 27 26
6 6 7 7 7 8 8 9 9 10 10 11 11 11 11 12 14 18 21 20 20 19 19 27 26 28 28 26 28 28 30 29 26 26 27 21 21 25 26 27 28 24 26 26 28 28 25
5 6 6 7 7 7 8 8 9 9 10 11 11 11 11 9 10 15 17 19 19 19 20 26 27 26 27 27 27 29 28 29 29 27 26 22 25 26 28 28 28 26 26 27 28 27 23
5 5 6 6 7 7 8 8 9 9 10 10 11 11 11 13 16 18 17 19 18 19 26 26 26 26 26 26 27 28 27 26 26 25 25 26 26 28 28 27 28 28 27 24 17 18 24
4 5 5 6 6 7 7 8 8 9 9 10 10 10 11 12 14 16 17 16 19 23 24 28 27 26 25 27 27 27 27 26 27 27 27 25 24 27 28 28 22 24 27 20 20 18 24
4 4 5 5 6 6 7 8 8 9 9 9 10 9 10 11 13 15 16 16 20 24 26 27 27 25 25 27 27 27 26 26 27 28 25 23 23 24 28 29 26 25 26 27 25 22 22
4 4 5 5 6 6 7 8 8 8 9 9 9 11 12 12 13 14 15 17 22 25 27 28 26 26 25 26 26 26 26 27 27 29 26 23 19 22 26 27 27 27 28 25 25 22 22
3 4 4 5 6 6 6 7 8 8 8 9 10 12 16 13 12 14 17 19 21 26 27 26 26 26 26 26 27 26 26 28 28 28 28 22 19 21 26 26 26 26 25 26 26 25 22
3 4 4 4 6 5 6 7 8 8 8 9 11 13 16 14 14 16 18 20 21 24 27 26 27 27 27 27 26 26 26 27 28 28 26 27 26 24 25 28 28 27 26 26 22 23 23
3 3 4 4 4 5 6 7 7 7 8 9 12 15 14 15 16 17 19 20 22 24 25 25 25 27 28 27 26 27 27 25 26 27 26 27 25 23 24 26 27 26 26 27 26 24 22
3 3 4 4 4 4 6 7 7 7 7 9 13 14 12 14 19 19 19 20 21 24 25 26 26 27 27 26 27 26 26 24 24 25 18 23 25 24 23 25 26 25 25 26 26 21 22
3 3 3 3 3 4 6 7 7 7 7 9 12 16 15 14 16 19 20 22 22 23 25 26 26 26 26 24 26 25 26 23 23 17 23 24 23 25 26 26 26 25 26 26 25 25 23
3 3 3 4 3 4 6 6 6 7 7 8 13 16 18 19 18 19 19 21 23 24 25 24 25 26 26 25 26 25 26 24 24 23 24 24 23 23 23 24 25 24 24 25 25 26 26
3 3 3 3 3 4 6 5 7 7 7 9 12 16 18 17 19 19 20 22 22 25 25 26 26 26 25 26 27 26 27 26 26 24 23 24 22 21 20 21 21 18 22 23 24 26 26
3 3 3 4 4 5 6 6 6 7 6 7 13 15 16 18 19 20 21 21 22 25 23 26 26 25 24 25 25 25 25 24 25 24 25 23 22 19 18 15 17 23 25 25 24 25 26
3 4 4 4 5 5 5 5 6 6 6 5 8 11 15 15 21 21 21 22 23 23 19 24 23 24 24 24 21 20 19 18 21 23 23 24 20 17 15 19 22 23 24 23 23 23 23
3 4 4 4 5 5 5 5 5 6 6 5 6 6 11 17 20 23 22 23 23 20 17 19 21 23 23 22 20 20 20 22 21 20 22 21 21 18 17 17 16 22 22 23 23 20 22
4 4 4 5 5 5 5 5 5 5 6 5 6 7 9 15 22 23 23 23 22 16 15 19 19 19 21 17 15 20 21 24 21 19 13 16 16 15 16 16 19 23 22 22 19 19 21
4 4 4 5 5 5 5 5 6 6 6 5 8 8 10 15 22 23 24 24 21 14 14 20 20 20 20 18 19 20 17 21 22 22 18 16 17 14 17 14 15 22 21 19 20 21 20
4 4 5 5 5 5 5 5 6 6 5 6 8 9 9 13 18 17 16 17 20 18 20 20 22 21 21 21 18 18 14 13 17 19 23 20 21 19 19 18 21 22 21 21 21 20 19

GFSGBSN_925_temp_048.txt.gz
Temp
9 9 9 10 11 12 12 12 13 13 13 13 13 13 13 13 13 13 13 14 14 14 14 14 14 14 14 14 16 24 24 24 23 21 22 21 22 22 22 23 23 23 23 25 24 21 20
8 9 9 9 10 10 11 12 12 12 12 12 13 13 13 13 13 13 13 14 14 14 14 14 13 13 12 15 23 23 23 22 23 22 22 21 22 23 22 23 23 24 24 25 22 22 22
8 8 9 9 9 10 10 11 12 12 12 12 12 12 13 13 13 13 13 13 13 14 13 13 13 11 11 15 23 23 23 22 24 24 23 24 24 22 24 23 24 23 25 25 22 22 21
8 8 8 8 9 9 9 10 11 11 12 12 12 12 12 12 12 13 13 13 13 13 14 13 12 11 12 22 21 22 24 24 24 25 26 26 25 23 24 23 22 22 23 23 24 22 22
8 8 8 8 8 9 9 9 10 10 12 12 12 12 12 12 12 12 13 13 14 14 14 12 11 11 14 21 21 25 25 24 25 25 24 25 25 23 22 21 19 20 22 23 25 24 23
8 8 8 8 8 8 9 9 9 10 11 12 11 12 12 12 12 12 13 14 14 13 12 10 11 12 15 22 24 25 26 25 24 24 24 23 19 20 19 19 19 21 23 23 24 24 23
8 8 8 8 8 8 8 8 9 9 10 11 12 12 12 12 12 12 13 14 13 13 12 15 16 16 19 22 24 25 26 25 25 22 21 21 19 19 20 20 22 23 24 23 23 24 22
8 8 8 8 8 8 8 8 8 9 9 10 11 12 12 12 12 12 12 11 14 16 14 16 17 18 19 20 20 22 26 23 22 21 20 20 20 22 21 23 23 24 23 22 23 23 23
7 7 7 8 8 8 8 8 8 8 9 10 11 12 12 11 12 12 12 13 16 16 14 17 18 18 19 20 20 22 24 23 21 20 20 20 22 22 22 23 22 23 22 22 22 23 23
7 7 7 7 8 8 8 8 8 8 9 9 10 12 11 11 12 12 11 15 16 15 14 17 19 20 21 23 22 24 25 24 22 20 20 21 23 23 22 22 23 21 23 23 24 21 21
6 7 6 7 7 8 8 8 8 8 8 9 10 11 11 11 11 12 15 15 15 15 14 21 21 24 22 22 24 24 25 24 23 21 20 20 21 21 22 23 24 21 22 23 24 22 21
6 6 7 6 7 7 7 8 8 8 8 8 9 10 11 10 10 13 15 16 16 15 14 21 22 21 21 22 23 24 25 24 24 23 22 22 21 23 23 23 23 22 23 20 18 19 19
4 6 6 7 6 7 7 7 7 8 8 8 9 10 10 11 11 13 14 15 14 15 20 22 22 22 21 21 22 23 23 23 21 21 22 22 22 22 23 22 22 23 20 17 16 15 17
5 4 6 6 6 6 7 7 7 8 8 8 9 9 10 10 13 13 14 14 14 17 18 22 22 21 21 21 22 22 22 21 21 21 19 20 20 22 22 22 22 21 20 16 20 16 17
4 5 5 6 6 6 6 6 7 7 8 8 8 8 9 10 12 12 12 14 13 17 21 21 22 20 20 22 23 22 20 20 21 20 20 18 20 21 21 22 22 22 20 21 17 16 14
4 4 4 5 5 6 5 6 7 7 7 8 7 8 9 10 11 11 12 15 16 18 20 21 21 21 20 21 21 20 20 21 22 21 21 20 19 19 21 23 23 21 22 20 18 19 19
4 4 4 5 5 5 6 6 6 7 7 7 7 9 12 10 11 10 13 14 16 19 19 20 21 21 21 20 21 20 22 23 22 23 20 19 18 19 19 20 21 21 21 21 19 16 17
4 4 4 4 5 5 5 5 5 7 7 7 8 10 11 10 10 10 13 15 15 17 18 19 20 20 21 20 21 20 21 23 22 20 21 19 17 16 20 22 21 19 19 20 15 20 16
4 4 4 4 4 5 6 5 5 6 7 7 8 10 9 12 11 10 13 15 15 17 18 19 20 20 22 21 21 21 21 22 21 21 20 19 18 16 18 20 20 20 20 21 18 15 17
4 4 4 4 4 4 5 6 5 6 7 7 9 10 10 11 12 13 12 14 14 16 17 17 18 19 19 22 22 21 21 22 20 21 17 19 18 17 16 19 20 21 22 22 19 13 16
4 4 4 3 4 4 4 5 6 5 6 7 8 11 11 11 12 13 13 14 14 14 17 18 18 18 18 20 22 21 20 20 21 18 21 19 19 20 20 21 22 22 22 22 21 19 17
4 4 3 3 3 4 4 4 5 5 6 7 8 10 11 12 13 12 13 13 14 16 17 18 18 18 19 19 20 20 19 19 20 20 21 19 19 21 20 19 20 20 21 20 21 21 20
3 3 3 3 3 4 4 5 5 5 5 7 9 9 12 13 13 12 12 14 15 16 17 19 19 19 18 19 20 21 20 19 19 19 18 18 16 13 17 16 17 14 18 19 20 20 20
3 2 3 3 3 3 3 4 3 5 5 8 9 9 11 12 13 13 14 14 15 16 16 19 19 18 20 18 18 17 16 18 18 18 17 15 15 11 12 12 13 17 19 19 17 17 17
3 3 3 3 3 3 3 4 3 4 4 6 8 8 9 10 13 14 14 15 16 17 17 18 19 19 17 18 15 16 12 15 17 17 17 17 12 12 12 12 15 18 20 18 17 17 17
3 3 3 3 3 3 3 3 4 4 4 5 7 7 7 10 13 15 14 15 15 15 15 16 17 15 17 13 12 15 14 16 17 17 15 14 12 12 10 12 13 15 19 18 17 14 17
3 3 3 3 3 4 3 4 4 4 4 5 6 6 7 8 10 14 15 14 16 14 14 14 16 17 14 8 11 12 13 17 14 14 13 10 10 11 7 10 12 15 18 19 16 14 16
3 3 3 3 3 3 3 4 4 5 5 6 6 6 6 7 9 11 12 14 16 15 14 13 14 13 11 12 12 11 10 13 13 15 14 14 11 9 9 9 14 16 18 17 14 14 13
3 3 3 3 3 3 4 4 4 5 6 6 6 6 6 7 9 8 10 10 11 17 12 12 15 14 13 13 11 10 12 9 12 12 15 15 13 12 12 12 14 14 14 13 13 13 13

GFSGBSN_925_temp_054.txt.gz
Temp
9 9 9 9 9 9 9 9 10 11 12 12 12 12 12 12 12 12 13 13 13 13 13 13 13 14 15 14 16 22 22 22 21 20 20 20 21 20 21 21 20 20 21 22 21 18 19
8 8 9 9 9 9 9 9 9 10 11 12 12 12 12 12 12 12 13 13 13 13 13 13 13 13 12 15 20 21 21 20 21 20 20 20 21 20 21 20 21 22 21 19 19 19 20
8 8 8 8 8 8 8 9 9 9 10 11 11 11 12 12 12 12 12 13 13 13 13 12 12 12 11 15 20 19 20 21 21 21 21 21 22 22 22 21 22 22 22 21 21 20 21
8 8 8 8 8 8 8 8 8 9 9 9 10 11 12 12 12 12 12 12 13 13 12 12 12 11 12 19 20 21 21 22 22 21 22 23 22 21 21 20 20 21 20 20 21 21 19
8 8 8 8 8 8 8 8 8 8 9 9 9 10 11 11 12 12 12 12 13 13 12 10 10 11 13 19 18 23 23 22 23 22 21 22 22 20 19 19 18 18 19 21 21 20 21
7 8 8 8 8 8 8 8 8 8 8 8 9 9 10 11 11 11 11 12 13 11 10 9 10 12 15 20 21 22 22 22 23 22 21 21 17 18 16 17 18 20 20 20 21 21 21
7 7 7 8 8 8 8 8 8 8 8 8 8 9 10 10 11 11 11 13 11 11 11 14 15 15 16 19 20 21 22 22 22 21 20 19 18 18 19 19 20 20 20 20 21 23 22
6 6 6 7 8 8 8 8 8 8 8 8 8 9 9 10 11 11 10 10 13 12 12 13 14 14 17 18 18 19 22 22 21 20 19 19 18 19 20 20 21 21 21 20 21 21 21
6 6 6 6 7 8 8 8 8 8 8 8 8 8 9 10 10 10 11 12 13 13 11 15 14 15 16 17 17 18 20 20 20 19 18 18 21 20 21 21 22 21 22 21 21 20 21
6 6 6 6 6 7 7 8 8 8 8 8 8 8 9 9 10 11 11 13 13 12 12 16 16 16 17 17 19 19 21 21 20 19 18 19 20 21 21 21 21 21 21 21 20 20 19
6 6 5 5 6 6 7 8 8 8 8 8 8 8 9 9 10 10 12 13 13 13 14 18 17 18 17 19 20 20 22 22 19 19 19 20 20 20 20 20 21 21 20 21 20 20 19
6 5 5 5 5 6 7 7 8 8 8 8 8 8 8 8 9 12 12 12 13 14 14 19 18 17 17 20 21 20 21 22 20 19 20 19 20 20 21 21 21 21 20 18 17 17 18
6 6 5 5 5 5 6 6 7 8 8 8 8 8 8 9 10 12 12 12 13 13 18 19 18 18 18 18 20 21 19 19 18 18 19 20 21 21 21 21 20 20 18 17 16 15 17
6 6 5 5 5 5 5 7 6 8 8 7 8 8 8 8 10 12 12 12 13 15 15 18 19 17 18 18 20 20 19 18 19 19 16 18 19 20 21 21 20 20 18 16 19 16 17
6 6 6 5 5 5 5 6 6 7 7 7 7 7 7 7 9 10 11 13 12 14 17 18 20 18 18 19 19 20 18 17 18 18 19 17 19 20 20 21 21 20 19 18 15 14 13
6 6 6 5 5 5 5 5 7 6 7 7 6 7 7 8 9 9 11 13 14 15 17 18 18 19 17 18 19 18 17 19 20 18 19 19 19 19 20 20 20 21 19 18 15 18 18
6 6 6 5 5 5 5 5 6 6 7 7 6 7 9 8 9 10 11 13 15 17 17 16 17 18 18 17 17 17 18 20 19 18 19 17 18 19 19 19 20 18 19 17 16 14 16
6 6 6 6 5 5 5 5 6 6 7 7 6 6 9 9 10 11 12 12 14 16 16 16 17 17 18 17 17 18 18 20 18 17 19 18 16 15 18 20 19 19 18 17 14 18 14
6 6 6 6 5 5 5 5 5 5 7 6 6 7 8 10 10 11 13 13 14 15 15 16 16 17 18 19 19 17 18 20 17 18 18 17 16 16 17 18 18 19 18 17 15 13 15
6 6 6 6 5 5 5 5 5 5 7 6 6 6 8 8 12 12 12 13 12 14 15 14 15 16 18 18 17 20 18 19 17 18 15 18 15 17 17 18 18 18 18 17 16 13 15
6 6 6 5 5 5 5 5 5 5 6 6 6 7 10 9 9 11 13 13 12 13 14 14 14 15 17 17 17 19 19 19 19 16 17 18 18 16 17 19 19 19 19 16 17 17 16
6 6 6 5 5 5 5 5 5 5 6 6 6 6 9 8 10 11 12 13 13 13 14 14 14 16 15 15 17 18 19 18 18 16 16 16 17 18 18 18 18 19 19 16 17 18 16
5 6 6 5 5 4 4 5 5 5 5 6 6 7 9 10 11 9 11 12 13 14 14 15 15 15 14 15 17 16 16 17 18 18 15 15 14 13 17 15 17 14 16 17 18 17 17
5 6 6 5 4 4 4 4 5 5 5 5 6 7 8 8 10 10 11 12 12 13 13 15 15 14 16 17 17 17 16 15 15 16 15 14 13 11 11 12 13 18 17 17 16 17 16
5 5 5 4 4 4 4 4 5 5 5 6 6 7 7 7 10 10 11 12 12 13 13 14 15 15 16 17 15 15 12 16 15 13 15 14 11 10 13 12 15 17 16 16 16 16 15
6 5 5 4 4 4 4 4 4 4 5 6 6 6 7 8 9 11 11 11 12 11 11 12 14 14 15 12 11 13 13 15 16 16 14 13 11 12 9 12 13 15 16 15 16 15 14
5 4 4 4 4 4 4 4 4 4 4 6 5 5 7 7 8 10 11 11 12 11 9 11 12 13 13 6 8 10 13 15 14 14 13 10 9 11 6 10 12 14 16 16 15 15 13
4 3 3 3 4 4 4 4 4 4 5 4 4 4 5 7 7 8 8 10 11 12 9 10 11 11 9 10 10 11 9 12 13 15 13 14 12 9 8 9 15 14 15 16 14 13 12
3 3 4 4 4 4 4 4 4 4 4 4 4 4 6 6 7 6 7 8 9 12 11 9 12 11 11 11 9 7 9 7 12 13 14 15 14 13 13 13 14 13 15 14 12 12 12